RH
19 26 21 19 17 17 19 19 23 19 17 19 24 36 45 54 46 63 66 65 66 71 78 74 66 63 66 67 59 69 77 72 79 76 74 69 63 54 53 55 57 60 62 64
26 24 18 22 28 24 26 25 24 22 23 26 38 44 53 53 62 66 68 67 63 62 63 64 68 70 70 66 59 54 52 56 59 55 52 52 52 52 53 56 56 52 51 56
25 19 22 24 30 34 37 30 29 25 25 27 32 40 51 47 56 62 62 60 57 56 56 56 56 54 52 46 42 42 43 44 45 45 48 50 46 42 44 46 50 52 58 63
22 28 27 29 28 31 35 28 26 26 27 34 27 54 38 44 53 59 62 55 53 52 51 48 45 44 45 47 48 47 48 48 50 49 48 47 47 52 56 57 60 65 70 72
25 29 30 30 26 25 30 25 27 28 37 39 36 53 44 50 57 58 61 56 50 47 44 45 47 48 50 50 52 54 55 55 56 57 57 60 61 61 64 68 72 74 71 67
27 25 25 25 25 25 23 34 47 52 49 60 43 46 51 56 55 56 56 56 50 47 44 48 48 50 53 55 56 58 58 57 56 59 59 58 59 63 69 72 68 63 58 53
34 32 28 26 30 28 36 49 69 70 75 70 50 57 53 43 46 50 56 56 54 51 53 54 49 54 55 57 61 62 58 58 58 59 59 60 61 63 65 63 60 41 33 33
48 45 32 28 29 32 36 46 72 56 73 64 50 68 60 52 44 44 48 50 51 49 49 47 47 51 56 57 56 57 57 56 57 58 58 60 62 63 61 53 54 46 46 38
45 38 29 25 26 29 34 45 39 72 73 74 64 52 48 47 54 50 47 46 48 54 49 49 52 57 54 53 53 53 54 55 56 58 60 61 59 55 55 55 47 53 53 50
40 42 29 26 26 28 29 34 56 71 61 58 58 64 69 57 59 54 50 52 53 49 53 52 52 52 52 52 53 53 51 51 53 56 54 51 52 51 52 54 54 57 58 58
38 40 37 34 32 34 37 42 51 56 72 75 78 63 42 54 53 58 51 51 51 53 52 52 53 54 54 53 52 50 50 50 48 48 49 47 51 54 56 58 59 62 64 66
40 51 58 35 34 32 30 38 47 65 48 84 80 62 42 52 49 45 51 50 51 53 57 57 56 56 57 55 50 47 46 46 47 52 50 55 57 58 61 61 63 58 62 80
39 50 65 50 46 38 32 39 60 62 70 62 72 58 42 53 57 54 54 58 58 57 58 61 57 48 46 49 49 48 47 46 46 44 44 46 53 49 49 50 43 34 37 66
45 58 49 58 44 42 31 32 50 53 78 68 68 45 63 66 68 64 61 60 63 64 61 55 48 49 53 49 47 46 44 43 45 47 48 45 42 41 41 42 40 43 50 66
50 55 52 48 48 37 32 32 48 51 51 58 51 58 53 68 71 68 66 67 65 62 55 52 50 48 49 49 47 46 46 49 47 40 36 36 37 39 44 48 54 57 54 57
64 70 47 45 64 62 43 38 43 47 45 56 64 75 64 62 66 71 70 69 65 57 48 45 49 48 42 44 48 46 38 34 34 33 38 42 45 50 55 56 58 50 77 100
67 74 62 46 75 54 51 43 50 44 42 49 78 65 66 76 71 72 71 67 54 50 50 57 48 39 39 34 32 33 34 33 35 42 45 51 55 57 59 64 55 57 69 99
75 87 84 64 68 44 35 44 45 43 63 61 68 70 65 66 63 64 64 53 48 52 61 41 33 32 33 35 36 32 32 38 41 48 52 53 55 63 66 58 59 66 80 100
67 86 97 73 74 45 33 52 62 50 54 69 72 71 64 67 75 74 64 54 57 62 40 32 33 35 38 38 38 40 41 43 48 50 52 61 68 66 63 64 64 73 100 100
76 72 71 98 57 49 38 48 40 41 72 69 66 73 71 84 98 81 64 62 64 39 33 35 37 38 40 41 42 43 44 46 47 56 66 74 71 70 69 73 80 89 96 93
99 96 88 100 81 70 50 46 40 64 55 71 63 66 73 83 66 57 63 58 42 35 37 38 40 41 42 41 38 34 39 53 63 72 80 80 83 78 70 77 86 90 98 93
89 96 99 94 92 74 46 49 60 56 47 58 68 66 70 65 63 67 47 42 36 38 40 40 39 34 33 27 25 33 52 68 79 83 90 98 93 84 74 91 99 97 90 95
70 65 80 76 76 49 48 45 40 40 41 63 67 71 69 68 68 53 44 38 38 39 39 37 33 29 25 24 32 43 54 67 74 85 100 100 100 92 83 99 100 100 97 95
65 56 79 68 51 55 43 45 54 51 54 59 69 72 70 67 67 46 40 39 39 39 37 34 28 22 24 30 39 55 60 66 96 94 100 99 100 94 79 100 100 100 98 95
63 69 69 79 66 75 62 53 53 60 69 72 71 68 70 72 46 41 39 39 39 37 36 30 25 27 31 34 43 52 56 71 100 100 100 100 98 93 81 100 100 100 100 97
63 70 81 78 46 55 50 44 56 67 73 71 68 73 68 47 43 39 38 38 36 37 29 28 28 30 33 36 40 49 63 98 100 100 99 99 97 98 97 95 100 100 100 99
Wind_Speed
6 6 2 3 2 3 3 1 3 1 3 5 5 7 8 10 24 23 23 28 28 27 26 24 21 19 21 22 22 18 9 0 3 6 6 6 6 3 4 5 7 9 12 15
6 2 1 7 5 6 6 6 2 1 5 7 6 11 9 12 10 18 25 27 32 30 25 23 22 19 15 9 9 9 8 6 4 3 4 4 4 7 10 13 15 19 23 25
4 3 5 6 6 8 5 4 2 3 5 7 6 6 7 6 16 19 24 26 25 24 23 19 14 11 12 12 11 11 9 7 5 4 5 6 8 14 19 20 20 20 20 22
5 5 5 6 6 4 3 1 3 3 4 4 3 2 0 1 6 7 16 20 22 23 19 16 16 17 15 13 10 11 10 8 9 11 11 14 15 17 17 18 18 18 20 22
3 3 5 5 1 2 3 2 2 2 3 4 2 5 3 5 3 4 9 18 21 20 17 18 17 14 11 9 7 5 3 1 5 9 13 13 14 16 15 13 15 17 23 28
3 2 3 2 1 1 1 4 6 4 3 2 3 5 4 7 7 6 12 20 19 17 16 16 15 12 11 8 4 1 3 7 9 11 13 16 17 15 13 14 18 23 26 28
5 3 4 2 2 2 6 5 2 3 3 4 5 2 4 5 9 8 13 20 19 17 15 13 10 8 7 5 4 5 6 8 9 12 15 16 16 15 14 17 21 27 27 27
4 4 4 5 2 3 3 4 4 4 3 3 5 3 4 1 19 21 23 20 16 12 9 8 4 6 3 5 4 4 7 12 14 14 17 16 15 16 19 25 27 29 29 29
4 1 3 2 2 3 1 3 3 6 3 3 2 2 5 3 7 16 19 18 11 8 10 8 7 8 6 4 6 8 11 12 15 15 16 17 20 23 24 27 29 28 30 30
5 4 1 2 2 4 4 4 3 4 2 1 3 4 4 8 9 8 12 11 9 11 16 14 11 7 4 5 7 9 13 13 14 13 15 19 23 26 26 25 27 28 29 32
3 4 4 2 3 1 4 2 6 5 3 4 1 5 4 11 10 8 9 10 16 17 15 11 8 5 2 5 9 12 10 9 12 16 19 23 22 20 22 26 27 29 31 33
2 5 3 1 4 3 2 2 4 4 2 1 3 5 4 4 12 16 15 20 19 16 13 9 4 3 6 9 9 6 8 12 14 15 19 19 17 20 22 24 24 32 35 28
2 2 3 6 6 5 2 3 5 5 3 4 4 5 2 9 11 13 23 20 18 15 9 3 2 5 5 5 6 7 10 13 12 17 21 20 18 21 26 28 28 25 28 29
3 3 5 6 4 3 3 2 3 5 3 3 6 3 2 5 7 13 20 18 13 8 3 1 4 2 5 6 7 9 10 11 12 17 19 20 25 26 26 26 28 28 26 26
4 4 2 3 4 1 2 4 6 6 5 5 5 7 6 9 8 17 16 12 7 3 1 2 2 3 5 4 8 8 8 13 18 22 27 29 26 27 28 28 28 29 31 29
4 1 2 1 5 5 4 6 6 6 4 6 4 4 4 13 14 14 12 8 4 2 3 3 2 6 7 7 4 9 15 20 25 27 23 21 23 26 30 30 34 35 25 26
3 4 3 3 4 5 6 8 9 5 4 6 6 7 13 7 13 15 11 6 4 5 2 4 4 2 2 7 12 18 21 23 23 20 19 22 26 29 30 33 35 28 22 19
5 4 3 2 3 2 6 4 5 4 2 3 3 9 15 16 13 11 8 5 6 5 5 4 3 4 8 12 18 23 23 24 20 15 22 27 28 31 35 33 28 24 20 17
3 5 3 3 3 5 4 4 6 6 7 6 8 8 12 10 9 9 10 8 8 8 6 4 4 9 12 17 21 22 23 20 18 23 27 25 29 34 30 26 23 18 11 8
6 6 4 3 4 6 6 3 7 4 5 17 16 15 13 15 2 5 16 11 9 7 4 4 8 10 15 18 20 21 19 22 25 26 24 28 30 25 23 20 18 14 8 6
2 3 5 2 3 8 7 6 6 5 7 20 24 27 21 9 12 8 13 11 8 6 5 6 9 13 17 19 21 22 23 23 24 24 28 27 24 23 20 16 15 10 5 6
7 6 4 3 1 8 11 5 8 6 6 23 25 26 23 16 10 9 11 10 10 6 5 9 14 18 19 20 22 21 22 24 25 28 26 23 22 22 17 12 10 10 4 7
3 7 5 9 6 4 18 6 20 9 10 21 23 22 16 14 14 15 13 10 7 6 9 13 17 19 19 20 20 21 23 25 29 27 18 21 21 19 15 9 8 8 10 13
4 7 3 3 5 14 12 24 14 15 13 17 17 15 14 14 13 14 11 7 5 8 12 16 19 19 20 21 20 22 26 27 24 24 20 19 19 18 14 9 9 9 11 12
4 7 4 4 8 7 13 19 21 16 13 16 14 15 15 11 15 12 7 5 8 11 15 18 19 19 20 21 22 25 26 22 21 22 20 19 17 14 12 9 8 9 11 12
9 6 4 6 12 9 8 12 18 19 19 18 20 17 13 15 12 7 4 7 11 14 17 18 19 21 22 25 27 26 25 20 20 21 16 16 13 11 11 12 11 10 13 10
Wind_Direction
4 62 73 45 171 192 196 153 151 45 18 86 31 27 4 70 127 120 121 122 120 114 109 115 126 146 166 179 203 224 265 119 155 189 193 224 258 273 283 289 287 289 300 306
17 60 354 83 39 82 62 116 85 104 32 97 84 46 36 40 92 124 122 120 119 117 115 113 109 109 118 103 104 99 104 99 103 107 105 71 20 343 330 323 319 318 316 315
118 304 60 104 48 80 32 85 29 111 43 39 94 38 20 41 97 113 123 124 124 124 121 117 113 112 111 109 107 107 100 93 76 40 12 348 334 329 330 324 311 310 314 312
86 336 89 64 83 103 70 315 51 49 85 178 79 194 290 54 66 95 134 134 131 130 129 125 126 119 115 102 77 57 51 42 20 8 351 337 324 322 315 307 306 307 308 307
221 98 81 65 40 89 182 151 163 135 97 84 354 95 253 117 136 173 154 146 142 140 137 135 130 121 111 91 85 73 63 352 329 328 329 323 319 316 307 297 297 297 308 315
93 95 81 169 26 8 141 90 45 47 84 56 280 130 225 191 183 174 176 164 154 152 152 149 135 137 130 115 103 17 304 316 318 314 317 321 317 311 302 300 308 319 318 317
16 352 327 79 111 1 67 71 8 16 13 212 328 68 226 230 162 174 169 176 173 166 167 162 130 146 133 137 176 225 280 299 310 316 318 315 309 304 308 322 326 331 330 328
128 350 3 339 107 179 30 131 147 189 190 249 1 344 284 175 144 166 175 174 174 173 180 171 160 193 202 156 203 261 300 318 321 320 317 310 315 325 328 332 330 330 332 326
123 323 321 34 24 119 198 52 157 106 15 66 260 345 18 35 129 153 158 156 159 222 213 187 188 171 172 215 268 298 314 322 326 322 324 329 328 323 324 328 334 327 328 323
185 109 337 308 57 30 119 145 58 11 112 208 276 223 217 207 198 192 191 214 162 159 148 143 152 169 208 263 294 311 321 329 330 324 321 323 327 327 326 329 329 327 326 320
104 100 276 19 19 202 2 36 54 105 111 155 224 262 215 199 193 194 192 171 153 146 147 151 155 167 250 295 312 323 335 332 330 333 329 326 328 329 330 327 329 327 322 314
39 122 98 188 298 298 184 123 114 108 214 73 144 275 336 172 176 169 146 148 154 157 149 146 162 292 315 317 322 349 336 327 329 329 323 323 325 329 330 327 325 320 317 301
148 36 68 357 350 349 113 69 90 105 87 199 131 263 12 81 92 139 150 150 142 140 144 147 338 334 331 337 345 339 320 320 308 311 316 316 312 320 323 321 323 331 327 309
115 95 150 181 203 182 156 129 116 120 122 192 224 213 167 146 139 138 144 142 144 141 136 21 350 2 356 356 333 314 305 309 316 323 327 329 330 330 326 326 333 337 326 307
89 117 94 65 14 3 216 180 178 190 189 171 245 210 191 186 166 157 151 150 148 142 307 344 59 11 336 302 304 291 309 326 326 327 327 328 329 327 328 329 333 330 321 314
12 151 74 118 5 1 283 233 231 237 218 248 148 234 176 158 158 160 164 164 175 219 149 108 304 306 306 306 329 330 329 330 329 329 327 324 326 329 329 328 329 327 315 314
76 115 86 256 342 335 330 225 193 202 193 155 183 210 160 176 178 175 177 193 215 177 181 270 274 287 348 340 339 334 332 332 335 325 321 325 330 327 325 327 328 329 319 307
118 90 70 201 19 1 244 306 241 185 244 220 108 159 172 179 188 191 194 222 196 199 245 222 219 323 341 339 336 336 335 334 326 316 323 327 325 325 325 327 326 323 326 315
79 118 93 141 201 300 290 192 152 176 252 199 161 149 170 170 168 217 212 200 203 231 217 216 318 333 332 330 335 335 335 333 323 324 325 323 322 323 324 326 326 325 316 308
57 71 111 129 148 217 241 258 148 113 297 191 170 167 164 155 164 245 200 197 221 204 202 293 312 322 326 331 332 330 327 323 324 323 319 319 323 325 324 324 327 324 300 305
46 13 159 147 226 285 240 191 139 102 238 176 188 186 175 186 212 184 183 194 193 192 246 294 315 322 326 324 322 325 328 325 320 316 318 322 324 324 323 317 318 321 294 306
168 151 197 95 92 277 185 139 165 203 190 186 194 196 197 207 199 181 177 181 182 217 263 307 316 319 321 322 323 323 322 319 317 319 320 319 324 325 324 311 309 304 281 299
244 190 185 185 214 260 187 216 212 228 210 195 199 197 200 198 186 177 187 191 216 263 304 316 318 320 320 321 321 317 317 318 321 323 309 316 322 321 316 304 293 287 296 306
244 178 205 94 246 242 237 239 250 232 224 207 198 195 197 182 193 189 190 209 258 299 313 316 316 316 317 318 316 312 315 317 318 326 318 314 313 316 308 284 284 286 301 309
205 152 189 261 275 275 261 242 242 228 216 188 189 193 185 197 186 190 202 251 294 309 312 314 314 313 316 318 314 313 313 313 307 308 315 310 307 311 312 290 275 285 302 314
192 192 169 229 241 226 244 247 229 210 194 193 185 175 176 188 187 195 252 300 309 312 313 313 312 312 315 318 318 316 311 306 306 314 314 302 297 300 317 318 286 290 299 301